Theta_e
289 290 289 289 288 288 287 288 287 290 291 292 291 291 292 292 293 293 293 293 293 293 292 292 293 293 292 292 293 293 293 295 298 289 290 289 288 286 285 285 284 285 284
288 289 289 289 288 287 285 285 285 286 286 289 290 290 291 291 291 292 292 291 292 292 291 291 291 291 291 291 291 291 291 292 295 288 288 288 287 286 285 284 283 283 283
287 287 288 288 288 287 285 284 284 285 285 285 286 289 290 290 290 290 290 290 291 291 291 291 290 290 290 290 290 290 290 290 291 290 286 286 285 285 284 282 281 281 282
287 286 286 287 287 287 285 284 284 284 284 285 285 285 286 290 289 289 289 289 289 290 290 290 290 289 289 289 289 289 289 289 288 289 285 284 283 282 282 281 280 280 282
286 286 285 285 284 284 284 283 282 283 284 284 284 284 284 285 288 290 288 288 288 288 289 289 289 289 289 289 289 288 288 288 287 287 286 283 282 281 281 281 282 282 282
284 284 283 283 283 283 283 282 281 282 283 284 284 284 284 285 285 287 289 288 287 287 288 288 288 288 288 288 288 289 288 288 287 287 286 285 283 282 281 281 282 283 283
283 283 284 283 282 282 282 281 280 280 281 282 283 283 284 284 285 286 287 289 288 287 287 287 287 287 287 287 287 288 288 288 289 288 287 285 284 282 282 282 282 283 285
282 282 283 282 281 281 281 280 279 278 279 280 280 281 282 283 284 285 286 287 288 288 287 287 287 287 287 286 285 287 287 287 288 288 287 287 285 283 283 283 282 282 282
280 280 280 280 280 279 279 278 277 277 277 277 277 279 280 282 283 284 285 287 287 287 288 288 287 287 287 286 285 285 286 286 285 286 286 285 284 284 283 282 282 282 281
279 278 278 277 277 276 276 276 275 274 274 275 275 276 277 278 280 282 284 285 287 287 287 288 287 287 286 286 285 285 285 286 284 284 283 283 283 283 282 282 282 281 280
275 274 273 273 273 272 272 272 272 271 271 271 272 273 274 275 277 279 282 284 286 286 287 288 288 287 287 286 286 284 285 285 283 283 281 281 281 282 281 281 281 281 280
271 270 269 268 267 267 267 267 267 268 268 269 270 271 272 274 276 279 281 283 284 286 286 287 288 288 286 286 286 284 284 285 283 282 280 281 281 281 280 279 279 279 279
268 266 266 265 265 265 265 265 265 265 266 267 268 269 271 273 275 277 280 283 284 285 286 286 287 288 287 285 285 285 285 284 281 281 280 281 281 280 280 278 277 276 276
265 264 264 264 264 264 264 264 264 264 265 265 266 268 269 271 273 276 280 282 283 283 284 285 286 287 286 284 284 285 284 284 281 281 281 281 280 278 276 276 275 274 273
264 263 263 263 263 264 264 264 264 264 264 265 265 266 267 268 269 271 276 278 282 281 282 283 285 286 284 283 283 284 284 283 281 281 281 280 277 276 275 274 273 272 272
262 262 262 262 262 262 263 263 264 265 266 266 267 268 268 269 270 272 274 275 277 281 283 283 285 284 282 282 283 282 283 283 281 281 280 277 276 275 274 273 273 272 272
261 261 261 261 262 262 263 263 264 264 264 265 266 267 268 269 270 272 273 275 278 279 283 283 283 283 282 282 283 282 283 280 280 279 276 275 274 274 273 272 272 272 272
261 261 261 262 262 263 263 264 264 264 264 264 265 265 267 268 270 272 274 277 278 280 284 283 283 282 281 281 282 282 280 278 277 275 275 275 274 273 273 272 271 271 271
260 261 262 262 263 263 264 264 264 265 265 265 265 266 267 268 271 274 278 280 282 282 283 283 283 282 281 282 281 279 277 276 276 275 274 274 273 272 271 271 270 270 270
261 261 262 263 264 264 265 265 266 266 266 266 266 267 267 270 273 276 277 279 280 283 283 282 281 281 281 279 277 277 276 275 274 274 273 272 271 271 270 270 269 268 268
261 263 263 263 264 265 266 267 268 269 268 267 267 268 271 274 274 275 276 278 283 283 283 281 280 279 278 278 276 275 274 273 272 271 270 270 270 269 269 269 268 268 268
262 262 263 263 264 265 266 266 267 268 269 269 270 270 271 271 272 273 275 277 279 280 279 278 277 277 276 275 274 273 272 271 269 269 268 268 268 268 268 267 267 267 267
261 261 262 263 264 264 265 265 266 266 266 266 267 267 267 267 267 268 269 270 272 274 275 275 274 273 272 272 272 271 269 268 268 268 267 267 267 267 267 267 267 267 266
261 261 261 262 262 263 264 264 264 264 265 264 264 265 265 265 265 265 266 266 267 268 269 269 269 269 270 270 270 270 269 268 268 268 268 267 267 267 266 266 266 266 266
261 261 261 261 261 262 262 263 263 263 263 263 263 263 263 263 263 263 264 264 265 265 266 267 267 267 268 268 268 268 267 268 268 268 268 268 267 267 266 266 266 266 266
260 260 260 260 260 261 261 261 262 262 263 262 262 262 262 262 262 262 262 263 263 263 264 264 264 265 266 266 266 266 267 268 269 269 268 268 267 266 266 266 266 266 265
Wind_Speed
18 17 18 19 19 20 22 22 27 26 23 17 17 16 17 21 22 27 29 29 32 32 33 35 37 37 33 36 37 33 31 21 5 4 22 22 29 30 28 26 21 18 16
15 15 17 17 21 22 27 29 29 27 29 27 22 16 15 20 22 26 27 30 32 31 33 33 32 32 35 34 37 35 33 33 18 10 19 21 26 31 29 25 23 21 19
15 16 16 16 18 21 26 29 30 31 31 28 28 26 18 15 21 25 26 29 31 34 33 34 34 35 37 35 35 34 33 30 27 17 12 20 19 27 24 21 20 21 21
15 16 17 17 17 17 22 28 32 32 30 31 31 29 26 21 19 23 27 28 31 33 34 35 36 39 41 39 36 38 37 35 32 21 16 19 20 22 26 23 20 22 20
18 22 21 21 23 26 26 26 26 30 32 32 31 34 33 27 21 21 24 28 30 32 34 36 39 41 43 45 44 38 36 35 30 28 18 15 20 16 26 21 19 19 21
22 26 29 31 31 29 27 28 30 29 26 25 27 28 31 29 25 22 21 27 30 32 34 34 38 41 45 47 50 48 50 45 36 32 29 25 26 27 28 26 22 13 8
21 23 26 29 27 27 30 34 35 31 30 28 29 28 29 30 28 26 25 27 30 33 34 34 34 38 40 42 45 43 47 52 53 47 39 34 29 37 33 27 28 25 12
22 24 25 24 27 28 29 29 31 31 32 33 34 33 34 35 31 30 30 30 32 34 36 37 36 37 37 37 37 39 46 45 48 43 45 38 34 37 40 38 35 25 14
21 24 26 27 30 30 32 33 34 33 33 36 38 40 36 39 35 34 30 30 31 35 37 37 36 37 38 36 38 39 40 42 38 42 37 37 36 34 38 33 29 24 8
23 25 27 30 31 33 34 37 37 35 37 37 39 40 42 45 43 39 35 32 32 33 32 34 37 42 38 37 42 38 38 39 31 30 28 25 27 34 36 39 36 27 10
27 28 29 29 31 34 37 36 36 37 38 41 40 42 42 44 48 44 41 37 35 33 31 31 32 34 40 41 42 42 46 34 34 34 31 31 31 34 34 35 38 36 23
32 32 32 32 31 32 34 37 36 36 38 39 38 40 39 41 42 43 43 42 42 36 34 32 31 31 34 39 42 44 40 37 34 37 35 33 33 34 33 32 31 30 23
34 34 33 34 33 32 32 33 33 32 32 33 32 33 37 36 36 39 41 41 40 39 39 36 32 30 32 36 42 43 42 39 34 35 34 34 34 33 31 32 29 26 21
33 33 33 33 34 33 32 31 31 29 29 29 30 30 32 33 33 32 30 29 30 34 37 36 34 31 32 32 35 41 40 39 35 36 32 30 30 33 33 33 31 27 23
31 32 33 32 32 32 32 31 32 33 33 33 33 35 34 34 34 38 39 31 22 25 25 27 26 28 25 28 29 31 36 35 33 32 29 31 32 34 30 32 29 27 15
31 31 30 32 32 31 32 33 33 38 39 41 43 44 42 48 48 47 45 48 44 36 23 23 20 24 25 27 27 29 33 33 32 29 27 30 30 32 30 30 29 26 21
31 33 32 32 32 32 31 30 28 35 38 39 40 40 41 44 45 44 44 44 42 42 31 23 21 23 24 26 27 29 29 24 29 30 30 31 31 31 33 30 28 26 21
31 33 32 31 31 31 31 31 31 29 26 33 35 35 35 37 37 39 39 37 34 39 27 22 19 22 23 23 23 25 23 27 27 29 32 31 30 29 28 26 25 24 21
30 29 29 30 31 33 33 32 30 29 28 29 33 34 30 31 31 35 34 24 12 31 25 21 19 22 22 22 20 22 28 30 32 30 29 28 28 29 25 24 23 22 21
27 28 31 31 30 29 29 28 28 26 25 25 25 27 31 28 24 19 21 20 18 16 15 13 19 19 20 22 25 25 25 27 27 27 27 28 28 28 25 25 23 22 18
27 28 28 28 27 28 28 26 27 25 20 22 25 29 31 28 20 19 22 21 16 14 8 13 16 20 26 28 27 26 26 26 26 26 27 28 29 27 26 25 24 22 21
25 25 25 26 27 26 26 25 23 23 21 21 21 21 24 20 19 17 17 13 15 15 18 23 22 23 24 27 28 27 27 27 27 29 27 28 26 27 25 24 22 20 19
22 24 25 25 25 26 25 23 21 21 21 22 21 21 20 18 17 17 18 17 14 14 13 15 19 21 22 23 25 28 28 28 30 32 33 31 29 27 25 23 21 19 16
21 22 23 24 24 24 23 23 22 22 21 20 21 20 19 18 17 17 18 16 12 12 11 13 15 18 20 21 22 23 26 28 30 32 35 33 30 30 26 23 21 18 16
20 21 22 22 22 22 23 23 22 22 21 20 20 21 20 19 19 19 18 17 16 16 15 14 15 15 16 18 20 20 24 29 32 33 33 32 31 28 25 22 20 16 13
19 20 20 21 21 21 21 21 22 22 22 21 20 21 21 20 20 20 20 20 21 22 21 20 17 18 19 19 19 23 27 29 29 28 27 26 25 23 21 19 16 13 10
Wind_Direction
10 7 7 9 12 12 13 8 6 358 349 337 313 297 278 266 250 239 234 237 236 232 228 223 220 218 218 222 224 222 216 204 174 152 188 196 193 202 211 211 219 222 225
0 0 360 357 2 4 4 4 3 360 2 358 346 308 292 281 268 250 242 241 237 236 232 229 224 219 217 217 220 220 220 218 204 164 177 180 195 203 212 213 218 221 222
351 349 348 350 350 351 350 350 351 350 353 354 354 344 322 300 281 269 254 249 244 241 237 232 228 218 218 217 214 213 214 216 211 191 175 190 187 195 198 216 218 228 225
341 339 335 334 334 330 331 335 337 339 339 341 342 339 338 326 305 282 270 257 252 248 241 239 235 225 221 217 213 210 208 207 207 198 186 180 184 193 194 199 212 221 225
331 327 324 324 323 321 322 322 326 328 328 327 325 327 328 326 309 303 282 268 260 253 247 241 238 236 235 226 215 211 207 201 197 196 196 186 186 176 192 192 206 211 220
311 310 313 313 315 316 314 315 318 318 313 310 310 310 311 311 307 296 282 271 269 260 254 247 244 241 238 236 226 224 213 202 199 199 201 207 200 191 185 186 185 176 211
300 300 299 304 304 303 304 308 310 311 310 305 302 301 296 296 295 291 282 281 268 263 260 257 250 242 237 230 228 225 222 215 217 208 206 209 197 190 188 183 187 191 194
295 299 299 295 295 295 296 297 300 303 302 301 298 293 290 285 285 284 282 270 266 262 256 253 250 247 238 228 223 221 225 221 215 213 215 214 211 197 199 196 192 184 166
294 294 295 294 294 292 289 288 293 294 292 291 292 291 286 282 281 279 276 268 261 259 257 251 248 250 245 231 219 219 221 227 221 216 218 213 208 208 205 184 172 175 176
300 296 295 295 293 292 291 291 290 289 287 287 285 282 283 282 280 275 269 263 259 259 258 253 245 243 243 234 219 216 220 219 212 205 208 196 189 189 199 200 185 181 163
306 302 299 295 293 292 292 290 288 287 284 282 281 280 278 276 276 274 267 258 252 256 254 251 246 241 238 234 223 217 222 211 203 200 198 193 186 183 184 190 194 192 180
310 306 304 302 297 293 291 291 288 285 282 280 280 279 276 275 273 273 266 257 253 249 249 250 246 240 232 229 227 222 220 215 197 194 190 195 188 186 183 181 185 190 194
306 304 303 302 298 295 292 290 290 286 281 280 280 279 279 278 275 273 269 262 256 254 252 249 246 239 226 226 224 223 218 213 196 192 195 196 194 186 179 168 175 182 173
301 302 302 300 298 295 290 287 285 285 283 282 281 280 283 282 279 278 276 267 256 258 256 255 249 239 216 214 217 225 217 213 198 197 196 194 183 171 166 166 158 162 168
303 302 301 298 297 297 292 288 284 280 276 276 273 273 274 275 276 281 282 288 263 252 263 257 242 224 197 207 212 214 214 208 196 195 190 180 168 164 166 163 161 166 177
303 301 300 299 298 296 295 294 288 288 288 286 284 281 279 276 277 276 273 277 275 276 250 259 237 214 203 200 204 199 211 204 193 186 178 170 170 168 162 160 164 171 168
295 296 295 295 294 293 293 292 294 293 291 289 288 287 283 280 276 271 268 266 264 262 254 241 236 215 209 201 201 197 203 188 179 172 162 165 168 166 164 167 169 168 168
296 295 294 293 293 293 293 292 291 292 294 294 293 291 288 283 277 274 271 269 253 251 237 234 232 211 207 203 196 195 178 167 170 164 167 171 173 168 170 168 166 165 161
299 297 297 297 296 295 294 292 291 290 290 292 297 298 293 291 285 279 281 282 249 227 220 226 227 207 198 196 185 168 165 170 171 171 170 171 169 167 163 158 156 154 150
305 304 303 302 302 301 300 298 295 291 290 293 295 293 299 303 300 307 302 298 259 248 206 225 195 193 183 160 158 163 163 164 167 167 164 163 160 159 152 151 150 147 152
309 308 310 310 308 307 306 306 307 299 292 292 290 293 299 302 317 307 303 282 247 187 200 175 165 158 158 161 162 164 163 161 162 159 158 157 154 151 151 147 148 154 157
315 314 315 314 314 316 317 317 324 331 327 317 321 331 334 341 344 346 356 22 88 128 157 163 158 162 165 163 159 158 157 154 152 150 149 148 144 142 143 146 148 150 154
324 324 325 324 326 326 326 330 334 338 338 340 341 343 348 353 358 3 12 26 63 91 123 146 154 148 154 154 155 158 155 156 158 158 150 148 146 144 145 146 149 150 159
334 332 332 331 333 334 336 336 340 344 348 351 351 352 356 2 9 16 28 43 60 76 96 112 124 131 145 154 163 168 168 166 167 166 159 151 149 152 151 155 158 160 164
340 342 339 336 337 339 340 344 347 350 355 0 1 2 4 13 20 26 36 53 66 77 84 101 115 128 140 147 154 163 162 165 163 163 160 158 156 159 158 158 163 167 171
345 346 345 344 346 346 348 350 353 357 1 6 12 14 17 22 28 34 42 54 66 77 88 94 106 116 122 128 140 150 154 155 151 153 154 154 155 159 163 165 168 175 185